[[{"header":{"parameterUnit":"m.s-1","parameterCategory":1,"la1":30.2991,"la2":30.254,"lo1":-89.0895,"lo2":-89.0444,"dy":0.0017,"dx":0.0017,"nx":28,"ny":28,"refTime":"2024-07-07T03:00:00:Z","depth":0,"parameterNumber":2,"parameterNumberName":"U-component_of_WINDS"},"data":[0,0,0,0,0,0,0,0,0,0,0,0,0,0,0,0,0,0,0,0,0,0,0,0,0,0,0,0,0,0,0,0,0,0,0,0,0,0,0,0,0,0,0,0,0,0,0,0,0,0,0,0,0,0,0,0,0,0,-0.3184,-0.3183,0,-0.3025,-0.3023,-0.3021,-0.2957,-0.2957,-0.2958,-0.2958,-0.2792,-0.2787,-0.2783,0,0,0,0,0,0,0,0,0,0,0,0,0,-0.3435,-0.343,-0.3185,-0.3183,-0.3181,-0.3025,-0.3023,-0.302,-0.2957,-0.2957,-0.2958,-0.2958,-0.2794,-0.2788,-0.2782,0,0,0,0,0,0,0,0,0,0,0,0,0,-0.3305,-0.3429,-0.3185,-0.313,-0.3124,-0.3025,-0.3023,-0.302,-0.2957,-0.2957,-0.2958,-0.2959,-0.2796,-0.2789,-0.2781,-0.2725,0,0,-0.2759,-0.2756,0,0,0,0,0,0,0,0,-0.3313,-0.3296,-0.314,-0.3134,-0.3126,-0.3011,-0.305,-0.2921,-0.2957,-0.302,-0.2958,-0.2959,-0.2864,-0.2852,-0.282,-0.2717,-0.271,-0.2759,-0.2754,-0.2751,-0.2749,0,0,0,0,0,0,0,-0.3322,-0.3303,-0.3121,-0.3138,-0.313,-0.3113,-0.3096,-0.3025,-0.2941,-0.3015,-0.301,-0.2992,-0.2861,-0.2827,-0.2816,-0.2707,-0.2759,-0.2753,-0.2748,-0.2745,-0.2551,-0.255,0,0,0,0,0,0,-0.334,-0.3311,-0.3126,-0.3116,-0.3223,-0.3109,-0.3089,-0.3048,-0.2941,-0.2926,-0.2991,-0.2989,-0.2839,-0.2824,-0.281,-0.2737,-0.2751,-0.2745,-0.274,-0.2552,-0.2551,-0.255,0,0,0,0,0,0,-0.3346,-0.3324,-0.3133,-0.3212,-0.3187,-0.3104,-0.3058,-0.3044,-0.3011,-0.2924,-0.2908,-0.2973,-0.2839,-0.282,-0.2747,-0.273,-0.2741,-0.2735,-0.2553,-0.2552,-0.2551,-0.2591,0,0,0,0,0,0,-0.3353,-0.3327,-0.3304,-0.3212,-0.3183,-0.3073,-0.3057,-0.3041,-0.2999,-0.2995,-0.2902,-0.2887,-0.2838,-0.2758,-0.274,-0.2721,-0.2729,-0.2554,-0.2552,-0.2551,-0.2591,-0.2591,-0.2592,0,0,0,0,0,-0.3362,-0.3321,-0.3303,-0.3282,-0.3153,-0.3072,-0.3055,-0.3,-0.2998,-0.2974,-0.2919,-0.289,-0.2736,-0.2751,-0.273,-0.2708,-0.2555,-0.2553,-0.2551,-0.259,-0.2591,-0.2592,0,0,0,0,0,0,-0.3412,-0.3308,-0.3287,-0.3215,-0.3153,-0.3061,-0.303,-0.3002,-0.2939,-0.2937,-0.2871,-0.2851,-0.2783,-0.2738,-0.2758,-0.2649,-0.2643,-0.2637,-0.268,-0.268,-0.2681,-0.2692,-0.2723,0,0,0,0,0,-0.3415,-0.3359,-0.327,-0.3215,-0.3185,-0.3114,-0.3076,-0.3039,-0.2972,-0.2945,-0.2884,-0.282,-0.2756,-0.2716,-0.2653,-0.2584,-0.2564,-0.2559,-0.256,-0.2561,-0.2556,-0.2517,-0.2515,-0.2544,-0.2544,-0.2544,0,0,-0.342,-0.3356,-0.3324,-0.3224,-0.3171,-0.3114,-0.3092,-0.3032,-0.2989,-0.2936,-0.2863,-0.2817,-0.274,-0.267,-0.2636,-0.263,-0.2544,-0.2558,-0.256,-0.2554,-0.2515,-0.2512,-0.251,-0.2543,-0.2543,-0.2543,0,0,-0.3399,-0.3346,-0.3294,-0.3243,-0.3164,-0.3117,-0.3105,-0.3018,-0.2985,-0.2912,-0.2871,-0.2819,-0.2711,-0.2659,-0.2618,-0.2581,-0.2552,-0.2562,-0.2564,-0.2527,-0.2525,-0.2523,-0.2509,-0.2505,-0.2558,-0.2558,-0.2558,0,-0.3415,-0.3327,-0.3271,-0.3214,-0.3171,-0.3122,-0.307,-0.3023,-0.2927,-0.2899,-0.2895,-0.276,-0.2705,-0.2622,-0.2613,-0.2582,-0.2566,-0.2571,-0.253,-0.2527,-0.2524,-0.2511,-0.2506,-0.2559,-0.2559,-0.2559,-0.2559,0,-0.3351,-0.3291,-0.3259,-0.3169,-0.3123,-0.3069,-0.3004,-0.2964,-0.2932,-0.2886,-0.2813,-0.2745,-0.2668,-0.2646,-0.2613,-0.2559,-0.2558,-0.2543,-0.2536,-0.2524,-0.251,-0.2505,-0.2562,-0.2561,-0.2561,-0.256,0,0,-0.3355,-0.3237,-0.3226,-0.3186,-0.3096,-0.3049,-0.2993,-0.2919,-0.2886,-0.2822,-0.2774,-0.2685,-0.2671,-0.2625,-0.2586,-0.2554,-0.2529,-0.2543,-0.254,-0.2543,-0.2466,-0.2477,-0.2472,-0.2511,-0.251,-0.2509,-0.2472,0,-0.3323,-0.322,-0.3169,-0.3089,-0.3033,-0.2987,-0.2938,-0.2878,-0.2834,-0.278,-0.2731,-0.2669,-0.2655,-0.2627,-0.2594,-0.254,-0.2513,-0.2542,-0.2464,-0.2462,-0.2484,-0.2465,-0.2476,-0.2445,-0.2466,-0.2465,-0.2465,0,-0.327,-0.3209,-0.3123,-0.3042,-0.3017,-0.2974,-0.2902,-0.2852,-0.2783,-0.2753,-0.2704,-0.2666,-0.2606,-0.2604,-0.252,-0.2541,-0.2506,-0.2475,-0.2473,-0.2462,-0.2462,-0.2454,-0.2434,-0.2429,-0.2456,-0.2456,-0.2457,0,-0.3282,-0.3178,-0.3113,-0.308,-0.2984,-0.2955,-0.2913,-0.2846,-0.2805,-0.2743,-0.2716,-0.2647,-0.2609,-0.2557,-0.2503,-0.2507,-0.2424,-0.2418,-0.2397,-0.2398,-0.238,-0.2382,-0.2354,-0.236,-0.236,-0.236,-0.236,0,-0.325,-0.32,-0.3118,-0.3078,-0.302,-0.2963,-0.2907,-0.2862,-0.2803,-0.2754,-0.271,-0.2665,-0.2596,-0.2542,-0.2499,-0.2436,-0.2419,-0.2393,-0.2382,-0.2397,-0.24,-0.2372,-0.2373,-0.2359,-0.2359,-0.2359,-0.2359,0,-0.3253,-0.3196,-0.3123,-0.3039,-0.3016,-0.2978,-0.2905,-0.2865,-0.282,-0.2758,-0.2741,-0.2669,-0.2604,-0.2545,-0.2457,-0.2428,-0.2364,-0.2351,-0.2388,-0.2382,-0.2364,-0.2367,-0.2317,-0.2308,-0.2321,-0.2321,-0.2321,0,-0.3237,-0.3197,-0.3109,-0.3073,-0.3033,-0.2976,-0.2935,-0.2877,-0.2836,-0.2756,-0.2726,-0.2658,-0.26,-0.2498,-0.2438,-0.2371,-0.2356,-0.2343,-0.2345,-0.2361,-0.2355,-0.2358,-0.2354,-0.2343,-0.2343,-0.2343,-0.2343,0,-0.3213,-0.3187,-0.313,-0.3063,-0.3015,-0.2959,-0.2902,-0.2876,-0.2807,-0.2763,-0.2696,-0.2652,-0.2564,-0.2497,-0.2424,-0.2381,-0.2351,-0.2344,-0.2335,-0.2349,-0.2372,-0.236,-0.2389,-0.2345,-0.2344,-0.2344,-0.2344,-0.2344,-0.3205,-0.3168,-0.3101,-0.3039,-0.299,-0.2938,-0.2897,-0.2847,-0.2791,-0.2715,-0.2685,-0.2617,-0.2551,-0.2451,-0.2408,-0.2354,-0.2348,-0.2336,-0.2333,-0.2331,-0.2334,-0.2382,-0.2341,-0.2341,-0.2341,-0.2341,-0.2341,0,-0.3179,-0.3134,-0.3078,-0.3,-0.2951,-0.2929,-0.2865,-0.2826,-0.2767,-0.2708,-0.2653,-0.2577,-0.2513,-0.2449,-0.2381,-0.235,-0.2335,-0.2334,-0.2335,-0.2326,-0.2343,-0.2357,-0.2348,-0.2348,-0.2348,-0.2348,-0.2348,-0.2348,-0.316,-0.3096,-0.3063,-0.2976,-0.2931,-0.2865,-0.2831,-0.2783,-0.2736,-0.2653,-0.26,-0.2559,-0.2498,-0.2426,-0.2366,-0.2349,-0.2325,-0.2329,-0.2308,-0.2325,-0.2325,-0.2325,-0.2337,-0.2325,-0.2324,-0.2295,-0.2295,-0.2295]},{"header":{"parameterUnit":"m.s-1","parameterCategory":1,"la1":30.2991,"la2":30.254,"lo1":-89.0895,"lo2":-89.0444,"dy":0.0017,"dx":0.0017,"nx":28,"ny":28,"refTime":"2024-07-07T03:00:00:Z","depth":0,"parameterNumber":3,"parameterNumberName":"V-component_of_WINDS"},"data":[0,0,0,0,0,0,0,0,0,0,0,0,0,0,0,0,0,0,0,0,0,0,0,0,0,0,0,0,0,0,0,0,0,0,0,0,0,0,0,0,0,0,0,0,0,0,0,0,0,0,0,0,0,0,0,0,0,0,3.4539,3.4539,0,3.4513,3.4513,3.4512,3.4515,3.4515,3.4515,3.4516,3.4485,3.4484,3.4483,0,0,0,0,0,0,0,0,0,0,0,0,0,3.4587,3.4586,3.4539,3.4539,3.4539,3.4513,3.4513,3.4512,3.4514,3.4515,3.4515,3.4516,3.4485,3.4484,3.4482,0,0,0,0,0,0,0,0,0,0,0,0,0,3.4564,3.4586,3.4539,3.4537,3.4536,3.4513,3.4513,3.4512,3.4514,3.4515,3.4516,3.4516,3.4486,3.4484,3.4482,3.4459,0,0,3.4477,3.4476,0,0,0,0,0,0,0,0,3.4565,3.4562,3.4537,3.4537,3.4536,3.4518,3.4518,3.4494,3.4514,3.4522,3.4516,3.4516,3.4495,3.4493,3.4486,3.4457,3.4456,3.4477,3.4475,3.4475,3.4474,0,0,0,0,0,0,0,3.4567,3.4563,3.4529,3.4537,3.4536,3.4535,3.4533,3.4514,3.4505,3.4522,3.4522,3.4519,3.4495,3.4488,3.4485,3.4456,3.4477,3.4475,3.4474,3.4473,3.4405,3.4405,0,0,0,0,0,0,3.457,3.4565,3.453,3.4528,3.4553,3.4534,3.4531,3.4523,3.4506,3.4504,3.4519,3.4519,3.4491,3.4488,3.4484,3.4455,3.4475,3.4473,3.4472,3.4406,3.4405,3.4405,0,0,0,0,0,0,3.4571,3.4567,3.4531,3.4546,3.4542,3.4533,3.4523,3.4522,3.4515,3.4503,3.4501,3.4513,3.4491,3.4487,3.4465,3.4454,3.4472,3.4471,3.4407,3.4406,3.4405,3.4397,0,0,0,0,0,0,3.4572,3.4567,3.4559,3.4546,3.4541,3.4513,3.4523,3.4521,3.4513,3.4513,3.4498,3.4496,3.4491,3.4468,3.4464,3.4452,3.4469,3.4408,3.4407,3.4405,3.4399,3.4396,3.4394,0,0,0,0,0,3.4574,3.4557,3.4558,3.4554,3.4531,3.4513,3.4509,3.4506,3.4512,3.4503,3.4495,3.4496,3.4456,3.4466,3.4461,3.4449,3.4409,3.4407,3.4405,3.44,3.4397,3.4394,0,0,0,0,0,0,3.4567,3.4555,3.4557,3.4536,3.4525,3.4513,3.4502,3.4503,3.4489,3.449,3.4485,3.4481,3.4459,3.4452,3.4463,3.4425,3.4433,3.443,3.443,3.4428,3.4425,3.4427,3.4468,0,0,0,0,0,3.4564,3.4551,3.4541,3.4523,3.4518,3.4511,3.4503,3.4501,3.4489,3.4484,3.4475,3.4463,3.4447,3.4437,3.4422,3.4398,3.4394,3.4387,3.4385,3.4383,3.438,3.4366,3.4362,3.4399,3.4399,3.4399,0,0,3.4555,3.4547,3.454,3.4522,3.4513,3.4499,3.4507,3.4492,3.4481,3.4481,3.4461,3.4454,3.4439,3.4416,3.4405,3.4409,3.4369,3.4381,3.438,3.4378,3.4364,3.436,3.4357,3.4398,3.4398,3.4399,0,0,3.4533,3.4526,3.4511,3.4503,3.449,3.4486,3.4482,3.447,3.4465,3.4445,3.4445,3.4431,3.4405,3.4394,3.4386,3.436,3.436,3.4355,3.4343,3.4329,3.4326,3.4323,3.4313,3.431,3.4352,3.4352,3.4352,0,3.4524,3.4504,3.4502,3.4487,3.4479,3.448,3.4463,3.4455,3.4438,3.4432,3.4437,3.4404,3.4394,3.4368,3.4362,3.4355,3.4349,3.4356,3.4327,3.4324,3.4322,3.4312,3.4308,3.4352,3.4352,3.4352,3.4352,0,3.4493,3.4479,3.4468,3.4453,3.4443,3.4427,3.4422,3.4412,3.4411,3.4405,3.4383,3.4372,3.4355,3.4349,3.4347,3.4322,3.4325,3.4328,3.4337,3.4318,3.4308,3.4305,3.4351,3.4351,3.4351,3.4352,0,0,3.4466,3.445,3.4446,3.4439,3.4426,3.4414,3.4398,3.4382,3.4374,3.4362,3.4347,3.4325,3.4328,3.4318,3.4315,3.4303,3.4282,3.4308,3.4307,3.4303,3.4253,3.425,3.4246,3.4282,3.4282,3.4281,3.4254,0,3.4442,3.4414,3.4412,3.4387,3.4373,3.4374,3.436,3.4349,3.4344,3.433,3.4323,3.4308,3.4314,3.4307,3.4296,3.4287,3.4272,3.4289,3.4267,3.4266,3.427,3.4241,3.4238,3.4212,3.425,3.425,3.4249,0,3.441,3.4399,3.4372,3.4361,3.4355,3.4342,3.4327,3.4315,3.4303,3.4299,3.4289,3.4287,3.4269,3.4278,3.4252,3.4264,3.4255,3.4249,3.4248,3.4245,3.4256,3.4236,3.4204,3.42,3.4244,3.4244,3.4244,0,3.4392,3.437,3.4351,3.4345,3.4331,3.4322,3.4316,3.4304,3.4295,3.4281,3.4275,3.4259,3.425,3.4238,3.4231,3.4239,3.4205,3.4215,3.4201,3.4201,3.4193,3.4193,3.4158,3.4188,3.4188,3.4188,3.4188,0,3.4365,3.4348,3.4343,3.4331,3.4312,3.4309,3.429,3.4284,3.4274,3.426,3.426,3.4246,3.424,3.4225,3.422,3.4198,3.4194,3.419,3.4189,3.419,3.419,3.4183,3.4184,3.4187,3.4188,3.4188,3.4188,0,3.4341,3.4337,3.4316,3.4305,3.4302,3.4289,3.4278,3.4266,3.4261,3.4243,3.4239,3.423,3.4213,3.4206,3.4184,3.4181,3.4156,3.4156,3.416,3.416,3.4146,3.4147,3.4104,3.4098,3.4133,3.4133,3.4133,0,3.4324,3.4311,3.4299,3.4291,3.4284,3.427,3.4261,3.4257,3.4247,3.4232,3.4222,3.4205,3.4191,3.4163,3.4154,3.4137,3.4136,3.4122,3.4134,3.4135,3.4135,3.4136,3.4134,3.412,3.412,3.4119,3.4119,0,3.4293,3.4292,3.4279,3.4266,3.4255,3.4244,3.4233,3.4226,3.422,3.4209,3.4192,3.4181,3.416,3.4142,3.4125,3.4117,3.4116,3.4116,3.4112,3.4112,3.4115,3.4112,3.4154,3.4117,3.4117,3.4117,3.4117,3.4117,3.4272,3.4261,3.425,3.4236,3.4228,3.4218,3.4206,3.42,3.4186,3.4169,3.4167,3.4149,3.4136,3.4113,3.4104,3.4088,3.4092,3.4086,3.4084,3.4082,3.4081,3.4118,3.4085,3.4085,3.4085,3.4085,3.4085,0,3.4241,3.4234,3.4222,3.4207,3.4195,3.4198,3.4186,3.4176,3.416,3.4149,3.4135,3.4115,3.4098,3.4088,3.4071,3.406,3.4059,3.4056,3.4056,3.4054,3.4079,3.4085,3.4056,3.4056,3.4056,3.4056,3.4056,3.4056,3.4223,3.4204,3.4202,3.4178,3.4172,3.4155,3.4148,3.4138,3.4129,3.4107,3.4093,3.4087,3.4076,3.4058,3.4042,3.4039,3.4032,3.4028,3.4025,3.4049,3.4052,3.4055,3.406,3.4027,3.4027,3.4001,3.4,3.4]}]]